{"data":{"norad_id":56551,"intl_designator":"2023-065BA","name":"STARLINK-6199","alt_names":[],"object_type":"PAYLOAD","status":"ACTIVE","operator":null,"country":"US","launch_date":"2023-05-14","launch_site_code":"AFETR","launch_vehicle":null,"mission":null,"orbit_class":"UNKNOWN","rcs_meters":null,"size_class":null,"mass_kg":null,"dimensions":null,"purposes":["comms"],"wikipedia_slug":null,"has_3d_model":false,"image_url":null,"decayed_at":null,"tle_current":{"epoch":"2026-05-25T01:49:46.157088Z","epoch_age_seconds":72056,"freshness":"FRESH","line1":"1 56551U 23065BA  26145.07622867  .00000255  00000+0  18807-4 0  9993","line2":"2 56551  43.0040 152.2588 0001391 289.1322  70.9379 15.27578493168154","mean_motion":15.27578493,"eccentricity":0.0001391,"inclination_deg":43.004,"raan_deg":152.2588,"arg_perigee_deg":289.1322,"mean_anomaly_deg":70.9379,"bstar":1.8807e-5,"rev_number":16815,"period_min":94.266841710503,"perigee_km":482.09921692986,"apogee_km":484.00800015715,"semimajor_km":6861.1906085435,"source":"CELESTRAK","updated_at":"2026-05-25T13:38:18.116831Z"}}}